Goshen, IN

7:28 AM EDT on May 23, 2017 (GMT -0400)
Goshen Municipal

Weather History for KGSH - October, 2011

Change the Weather History Date:

Saturday, October 8, 2011

  Actual Average Record
Temperature  
Mean Temperature 67 °F -  
Max Temperature 82 °F 65 °F 88 °F (2007)
Min Temperature 52 °F 44 °F 25 °F (1952)
Cooling Degree Days 2    
Growing Degree Days 17 (Base 50)    
Moisture  
Dew Point 54 °F    
Average Humidity 66    
Maximum Humidity 89    
Minimum Humidity 39    
Precipitation  
Precipitation 0.00 in - - ()
Sea Level Pressure  
Sea Level Pressure 30.34 in    
Wind  
Wind Speed 5 mph (SSE)    
Max Wind Speed 12 mph    
Max Gust Speed 16 mph    
Visibility 9 miles    
Events      
Averages and records for this station are not official NWS values.
T = Trace of Precipitation, MM = Missing Value Source: NWS Daily Summary

Daily Weather History Graph

Daily Weather History Graph

Search for Another Location

Airport or City:

Trip Planner

Search our weather history database for the weather conditions in past years. The results will help you decide how hot, cold, wet, or windy it might be!

Date:

Astronomy

Oct. 08, 2011 Rise Set
Actual Time 7:47 AM EDT 7:13 PM EDT
Civil Twilight 7:19 AM EDT 7:41 PM EDT
Nautical Twilight 6:47 AM EDT 8:13 PM EDT
Astronomical Twilight 6:15 AM EDT 8:45 PM EDT
Moon 5:25 PM EDT (10/8) 4:31 AM EDT (10/8)
Length of Visible Light 12h 21m
Length of Day
11h 26m
Waxing Gibbous, 90% of the Moon is Illuminated
Oct 8
Waxing Gibbous
Oct 11
Full
Oct 19
Last Quarter
Oct 26
New
Nov 2
First Quarter

Hourly Weather History & Observations

Time (EDT) Temp. Heat Index Dew Point Humidity Pressure Visibility Wind Dir Wind Speed Gust Speed Precip Events Conditions
12:53 AM 61.0 °F - 50.0 °F 67% 30.31 in 10.0 mi SE 4.6 mph - N/A   Clear
2:53 AM 57.9 °F - 51.1 °F 78% 30.32 in 10.0 mi SE 3.5 mph - N/A   Clear
3:53 AM 59.0 °F - 51.1 °F 75% 30.32 in 10.0 mi SSE 5.8 mph - N/A   Clear
4:53 AM 59.0 °F - 50.0 °F 72% 30.33 in 10.0 mi SSE 4.6 mph - N/A   Clear
5:53 AM 57.9 °F - 51.1 °F 78% 30.35 in 10.0 mi SSE 5.8 mph - N/A   Clear
6:53 AM 55.9 °F - 50.0 °F 80% 30.36 in 9.0 mi Calm Calm - N/A   Clear
7:53 AM 52.0 °F - 48.9 °F 89% 30.38 in 6.0 mi SE 4.6 mph - N/A   Clear
9:53 AM 66.0 °F - 55.0 °F 68% 30.39 in 10.0 mi SSE 4.6 mph - N/A   Clear
10:53 AM 72.0 °F - 55.0 °F 55% 30.39 in 10.0 mi South 6.9 mph - N/A   Clear
11:53 AM 75.0 °F - 55.9 °F 51% 30.38 in 10.0 mi SSW 6.9 mph - N/A   Clear
12:53 PM 78.1 °F - 57.0 °F 48% 30.37 in 10.0 mi WSW 3.5 mph - N/A   Clear
2:53 PM 80.1 °F 80.1 °F 55.0 °F 42% 30.33 in 10.0 mi SSW 11.5 mph 16.1 mph N/A   Clear
3:53 PM 81.0 °F 80.5 °F 54.0 °F 39% 30.32 in 10.0 mi South 8.1 mph - N/A   Clear
4:53 PM 82.0 °F 81.4 °F 55.0 °F 39% 30.31 in 10.0 mi South 9.2 mph - N/A   Clear
5:53 PM 80.1 °F 80.0 °F 54.0 °F 40% 30.31 in 10.0 mi South 6.9 mph - N/A   Clear
7:30 PM 66.2 °F - 57.2 °F 73% 30.32 in 2.5 mi SE 3.5 mph - N/A   Haze
7:38 PM 66.2 °F - 57.2 °F 73% 30.33 in 10.0 mi Calm Calm - N/A   Clear
7:53 PM 64.9 °F - 55.9 °F 73% 30.33 in 10.0 mi SE 3.5 mph - N/A   Clear
8:53 PM 62.1 °F - 55.0 °F 78% 30.34 in 7.0 mi SE 4.6 mph - N/A   Clear
10:53 PM 63.0 °F - 54.0 °F 72% 30.33 in 10.0 mi SE 6.9 mph - N/A   Clear
11:53 PM 57.0 °F - 53.1 °F 87% 30.33 in 10.0 mi SE 3.5 mph - N/A   Clear